Theta_e
317 317 317 316 316 316 316 316 315 315 314 314 313 313 312 311 310 309 310 310 313 318 319 320 320 320 321 321 321 324 325 324 323 320 319 320 320 319 319 318 317 317
317 316 316 316 316 316 316 315 315 315 314 314 313 313 312 311 310 309 309 310 313 318 320 320 321 321 321 322 323 323 323 322 320 318 320 320 318 318 317 316 316 316
317 317 317 317 317 316 316 315 315 314 314 314 313 313 312 311 311 309 309 309 311 315 318 319 319 319 320 322 323 322 323 321 317 318 320 319 318 317 316 315 315 316
317 317 317 317 317 317 316 315 315 315 314 314 313 313 312 311 311 310 309 308 309 312 316 318 318 318 320 322 322 321 321 319 317 319 319 318 318 317 316 315 315 315
317 317 317 317 317 317 316 316 316 315 314 314 313 312 312 311 311 310 309 308 308 311 315 318 318 319 321 322 321 321 320 318 318 319 318 318 318 316 315 314 314 314
317 317 317 317 317 317 317 317 316 315 314 314 313 312 312 311 311 310 310 308 307 310 315 317 317 319 320 320 320 320 319 318 318 318 317 317 316 315 314 314 314 314
317 317 317 316 317 317 317 317 316 315 314 313 313 313 312 311 311 310 310 308 307 310 315 317 318 319 320 320 320 319 319 318 317 317 317 316 314 313 313 314 314 313
317 317 317 317 317 317 317 317 316 315 314 313 312 312 312 312 311 310 309 308 307 311 315 316 317 318 319 320 319 318 317 317 317 317 316 314 313 313 314 314 313 311
317 317 317 317 317 317 317 316 316 316 315 313 312 312 312 312 311 310 309 308 307 310 313 313 313 316 318 318 317 317 316 316 317 317 315 313 313 313 314 313 312 310
317 317 317 317 317 317 317 316 316 316 315 314 312 311 311 311 311 310 309 308 307 308 309 311 312 315 316 316 316 315 315 315 316 316 315 313 313 313 313 313 312 310
317 317 317 317 317 316 316 316 316 316 315 314 312 311 310 310 310 309 309 308 307 306 308 310 313 314 315 316 315 314 314 315 316 315 315 314 313 312 313 313 312 310
317 317 317 316 316 316 316 316 316 315 315 314 312 311 310 309 309 309 309 308 307 306 307 309 312 313 314 314 312 312 313 315 315 315 315 314 313 312 312 312 311 309
317 316 316 316 316 316 316 316 316 315 315 314 312 310 309 309 309 308 308 308 307 306 306 308 311 312 312 312 311 312 313 314 314 313 313 312 312 311 311 311 309 307
316 316 316 316 316 316 316 316 316 315 315 314 312 311 310 309 308 308 308 307 307 306 305 307 309 310 310 310 311 312 313 313 312 312 311 311 311 311 310 310 308 306
316 316 316 315 315 315 316 316 315 315 315 314 312 311 310 308 308 307 307 307 306 306 305 306 307 308 309 310 312 313 313 312 311 310 310 311 310 310 309 308 308 307
316 316 315 315 315 315 315 315 315 315 314 313 312 311 309 308 307 307 307 306 306 305 305 306 306 307 310 311 312 312 312 311 310 310 310 310 309 308 307 307 307 305
316 316 315 315 315 315 315 315 315 314 314 313 312 310 309 308 307 307 306 306 305 305 305 306 306 308 310 311 312 312 310 310 310 310 310 309 308 307 307 306 305 304
315 315 315 315 315 315 315 314 314 314 313 313 311 310 308 308 307 306 306 306 305 305 305 306 307 309 310 311 311 310 309 309 309 309 308 307 307 307 307 306 305 303
315 315 315 314 314 314 314 314 313 313 313 312 310 309 307 307 306 306 305 305 304 304 305 306 308 309 310 310 309 309 308 308 309 308 307 307 307 307 306 306 305 302
315 314 313 314 314 314 314 313 313 312 312 311 309 307 307 306 305 305 305 305 304 304 305 307 308 309 310 310 309 308 307 307 308 307 306 306 306 306 306 305 303 300
315 313 313 313 313 313 313 313 312 312 311 309 308 306 306 305 305 304 304 304 303 303 304 306 307 308 309 309 309 308 307 307 307 306 305 305 305 304 303 302 300 298
314 313 313 313 313 313 312 312 311 311 310 308 307 305 305 304 304 304 303 303 303 302 303 306 307 308 308 308 307 306 306 306 305 305 305 305 304 303 301 299 297 296
313 313 312 312 312 312 311 311 311 310 308 307 305 305 304 304 304 303 302 302 303 303 305 306 307 307 307 306 306 305 305 305 305 304 304 304 303 301 298 295 294 294
312 311 311 311 311 311 310 310 310 308 307 306 304 304 303 303 303 302 302 302 303 304 306 306 306 306 306 305 305 305 305 305 305 304 303 303 301 297 294 293 293 293
311 311 311 311 310 310 310 309 309 307 306 304 303 303 302 302 302 301 301 302 303 304 305 305 305 304 304 304 304 304 304 304 304 303 302 301 298 294 292 292 292 291
310 310 311 310 310 310 309 309 307 306 305 303 302 302 301 301 301 300 301 302 303 304 304 304 303 303 303 303 303 303 303 303 303 302 301 299 295 293 292 291 290 289
Wind_Speed
12 13 14 15 16 18 19 21 22 24 26 28 29 29 29 28 29 31 36 40 42 43 43 43 43 43 42 42 43 45 45 39 32 33 38 40 36 34 34 35 38 42
9 11 12 13 14 16 18 19 20 22 24 26 27 28 28 27 28 30 33 36 41 43 44 43 43 41 41 43 45 44 40 33 32 37 40 36 31 30 31 32 35 40
9 10 11 13 14 15 17 18 20 21 22 24 26 27 28 28 28 29 31 33 38 43 44 42 41 39 40 43 42 40 35 33 36 40 38 33 31 32 30 31 35 40
8 10 12 14 15 16 17 19 20 20 21 22 23 25 27 29 29 29 31 32 35 39 40 39 38 38 39 41 39 36 34 37 40 39 35 34 35 33 31 32 36 41
8 10 11 13 16 17 19 20 20 20 20 21 22 24 26 29 30 30 30 32 33 35 36 37 36 37 39 40 38 35 35 40 41 35 34 37 37 34 33 33 36 42
9 10 12 14 16 17 19 21 21 21 20 21 21 22 24 27 29 30 30 31 32 33 36 36 36 38 40 40 38 38 39 40 37 33 35 36 35 35 36 36 39 43
12 13 14 16 17 18 19 21 22 22 21 21 22 23 23 25 27 28 28 29 30 32 34 36 37 39 41 41 41 41 39 37 34 35 36 34 33 35 36 38 41 42
14 15 17 18 19 19 20 21 23 23 22 23 24 24 24 24 25 26 26 27 29 32 33 34 36 37 38 40 40 39 36 35 35 35 35 33 34 35 35 38 42 42
16 17 18 19 20 21 21 22 24 24 24 24 25 25 25 26 25 25 26 27 28 31 33 33 34 35 36 37 36 35 33 34 35 36 35 34 33 33 34 38 41 42
18 18 19 20 21 22 23 24 25 26 26 26 26 26 26 26 26 26 26 27 28 31 33 33 34 35 36 36 34 33 32 34 35 35 35 33 31 30 31 35 38 40
21 20 21 21 21 22 24 25 27 28 29 28 27 27 27 27 27 27 27 28 28 30 32 33 34 35 36 36 34 33 34 35 33 32 33 33 31 30 30 32 36 38
25 23 22 22 22 23 24 26 28 29 30 30 29 28 27 28 28 28 28 28 28 29 31 33 34 35 35 35 35 35 35 34 31 31 32 32 30 28 29 31 34 36
28 27 25 23 24 24 25 28 30 31 32 32 31 29 29 29 29 29 28 28 28 29 30 32 34 34 35 35 35 34 33 32 31 32 32 31 29 28 28 29 31 34
30 29 27 26 26 26 27 29 31 33 33 33 32 31 30 30 29 29 28 27 28 29 30 31 33 33 33 33 32 32 32 32 32 31 30 29 30 30 27 26 28 31
32 31 29 27 27 28 30 32 33 35 35 34 34 32 31 31 30 29 28 28 29 30 30 32 33 33 32 31 31 32 32 32 31 29 29 29 30 30 27 25 26 27
35 34 31 29 29 30 32 34 35 36 36 36 35 33 31 32 31 29 29 29 30 31 31 32 33 33 31 31 31 31 30 29 27 26 27 27 27 27 26 25 25 25
39 36 33 31 31 32 34 36 37 38 38 37 36 33 31 32 31 30 30 30 29 30 31 32 30 29 30 30 30 29 28 26 24 25 26 25 25 25 24 24 25 26
43 42 39 34 33 34 36 37 38 39 39 39 38 34 31 31 32 31 30 29 28 28 29 29 27 26 27 28 28 27 26 24 24 25 25 24 23 23 23 23 25 26
44 47 43 37 35 36 37 38 39 39 39 39 37 33 30 30 31 30 29 28 27 28 29 28 26 26 26 25 24 24 24 23 24 25 25 23 23 23 24 25 26 27
42 45 43 40 38 38 39 39 39 39 39 38 36 32 30 30 30 29 29 28 27 29 30 29 28 27 27 26 26 26 25 24 25 26 25 23 23 23 25 27 27 27
39 41 42 41 40 39 39 40 39 39 38 36 34 31 29 29 28 28 27 26 26 28 30 29 28 28 28 28 27 26 25 25 26 27 26 25 24 24 24 24 24 25
35 37 39 41 41 40 39 40 39 38 35 33 32 30 28 27 27 27 26 24 23 25 27 28 28 28 28 27 25 23 22 23 25 26 26 25 25 24 22 21 22 24
35 37 39 40 40 39 39 38 37 35 32 30 29 28 27 27 26 26 24 22 21 23 25 26 26 26 26 25 24 23 23 23 24 24 25 25 24 23 22 22 23 24
35 36 37 37 37 37 36 34 33 31 29 28 27 26 25 24 24 24 23 22 22 23 24 24 24 23 22 22 23 23 23 23 24 24 25 25 25 24 23 23 23 24
32 33 34 34 34 33 30 29 28 28 27 26 25 24 23 23 23 23 23 22 23 23 23 22 21 21 20 19 20 21 22 24 25 25 26 27 26 25 25 24 23 27
31 32 32 31 30 27 26 27 27 27 26 25 24 23 22 22 22 22 22 23 23 24 23 22 20 19 19 20 22 24 25 26 26 26 27 27 26 27 27 26 26 30
Wind_Direction
271 272 274 277 279 280 279 278 277 276 275 274 274 275 272 265 258 251 247 244 242 241 242 243 243 241 240 240 243 243 237 237 247 258 260 256 250 248 249 252 251 249
271 275 278 282 284 285 284 282 282 279 278 278 277 276 274 269 261 254 250 246 242 241 241 241 242 241 241 243 243 238 235 243 255 259 256 250 246 248 253 258 256 252
277 283 290 293 292 290 288 285 283 281 281 281 279 278 275 272 266 258 253 249 244 241 241 242 242 240 242 243 239 235 240 254 259 256 251 246 246 252 257 263 261 255
294 298 298 296 294 291 288 285 284 284 284 283 282 279 276 273 269 263 256 251 245 241 240 242 241 239 242 241 237 239 247 256 256 251 248 248 249 251 256 261 262 259
294 295 293 291 291 289 287 286 286 284 283 284 282 279 276 272 269 266 259 252 246 239 237 240 240 240 242 240 240 247 250 250 250 249 253 254 249 250 255 259 261 260
276 276 278 280 282 284 286 287 284 281 280 282 282 279 277 273 269 266 259 253 247 238 233 235 237 239 242 242 246 253 251 247 248 252 255 252 248 252 258 258 260 258
265 266 269 272 275 279 284 286 284 280 279 278 279 280 278 274 271 267 260 252 246 238 231 231 233 236 241 244 248 251 248 247 251 254 251 248 249 254 257 258 258 254
261 263 266 269 273 276 281 284 283 282 279 275 275 278 280 278 275 269 262 253 244 236 231 230 234 237 239 242 243 245 246 248 253 252 247 247 251 253 256 258 255 250
262 266 267 269 272 276 279 282 282 281 278 274 273 275 278 280 278 271 263 254 244 234 230 232 235 237 239 242 242 244 247 250 253 250 245 247 251 253 258 259 254 248
262 268 269 271 275 277 279 280 280 280 278 276 273 272 274 278 278 272 263 254 245 235 231 232 235 237 241 246 247 249 251 253 253 249 246 248 252 255 258 259 256 250
259 264 269 274 278 279 279 279 279 278 277 276 273 271 272 274 275 272 264 256 248 239 234 234 236 239 243 247 250 253 252 251 250 249 249 249 250 253 257 259 258 252
258 260 266 273 277 279 279 279 278 276 275 274 272 270 270 271 272 271 265 258 250 243 238 236 238 242 244 246 249 249 248 247 248 251 252 250 248 251 257 260 258 251
259 260 264 270 275 277 278 278 277 276 275 274 272 270 268 268 269 268 266 259 252 246 240 238 239 243 244 245 246 246 245 246 247 248 250 250 247 249 255 260 257 250
260 262 263 267 272 275 276 277 276 275 274 273 272 269 267 266 266 266 265 260 253 247 241 239 240 242 242 242 245 245 243 243 244 246 250 252 248 245 247 252 251 247
261 263 264 267 271 274 276 277 275 274 274 273 272 269 267 266 264 262 262 259 253 247 242 239 239 238 239 241 242 241 238 239 244 249 252 252 247 241 238 239 241 241
261 262 264 267 272 276 277 277 275 273 273 273 272 269 266 265 263 260 260 258 253 247 242 240 238 236 236 240 243 240 237 239 245 247 247 244 239 237 235 234 235 234
261 263 264 268 273 277 278 277 275 273 272 272 272 268 265 263 261 258 258 257 254 248 241 238 236 234 237 242 244 239 235 239 243 241 238 235 234 235 236 236 234 231
265 265 266 268 273 277 277 276 274 272 270 270 270 268 265 262 259 257 256 256 252 246 240 235 233 234 239 240 239 236 236 240 242 237 233 234 235 237 238 238 236 233
271 267 265 267 273 275 275 275 273 270 269 268 269 268 265 261 257 254 254 252 246 241 237 234 231 234 237 237 237 241 244 245 241 236 235 236 238 240 241 241 237 232
274 267 264 266 272 274 273 273 271 268 267 267 267 265 262 259 254 251 251 249 242 237 235 232 231 233 237 240 243 247 248 245 239 235 236 239 239 240 243 242 238 231
273 268 265 266 270 272 272 270 268 267 267 266 265 264 262 257 253 250 250 249 244 237 232 230 229 232 237 241 241 240 240 240 237 236 240 242 239 238 240 240 235 228
272 269 267 268 270 270 268 265 266 267 267 265 263 261 258 253 249 247 246 247 244 236 229 228 231 234 237 236 232 232 236 240 240 241 243 241 237 236 236 232 227 224
271 269 268 268 267 265 263 263 265 267 266 264 261 258 254 249 246 244 243 242 238 232 228 230 233 235 234 231 228 230 235 242 247 246 242 238 235 234 230 222 218 218
269 266 265 264 263 261 261 262 264 264 263 261 258 255 251 248 245 242 239 236 232 230 230 230 230 230 228 228 229 231 235 243 248 246 239 234 230 226 221 214 212 211
266 265 264 263 262 262 261 260 260 259 258 255 253 250 245 241 240 236 233 231 229 230 228 224 222 222 226 231 235 237 241 244 245 240 233 228 222 214 207 203 204 204
268 267 266 264 263 261 258 256 254 252 250 247 244 242 238 235 233 229 227 227 227 227 223 219 220 227 237 245 246 244 243 241 238 234 229 223 213 202 195 193 195 195